Regional Weather Roundup
Issued by NWS

Home | Current Version | Previous Version | Text Only | Print | Product List | Glossary On
Versions: 1 2 3 4 5 6 7 8 9 10 11 12 13 14 15 16 17 18 19 20 21 22 23 24 25 26 27 28 29 30 31 32 33 34 35 36 37 38 39 40 41 42 43 44 45 46 47 48 49 50
000
ASUS46 KLOX 240812
RWRCA

SOUTHERN CALIFORNIA WEATHER ROUNDUP
NATIONAL WEATHER SERVICE OXNARD CALIFORNIA
100 AM PDT THU APR 24 2014

NOTE: "FAIR" INDICATES FEW OR NO CLOUDS BELOW 12,000 FEET WITH NO
SIGNIFICANT WEATHER AND/OR OBSTRUCTIONS TO VISIBILITY.

  -  STATIONS PRECEEDED BY AN ASTERISK (*) ARE NOT NWS OR FAA
     STATIONS AND ARE NOT SUBJECT TO NWS AND FAA QUALITY CONTROL.

CAZ041-042-087-240900-
LA AND ORANGE COUNTY COASTAL AREAS


CITY           SKY/WX    TMP DP  RH WIND       PRES   REMARKS
L.A. DOWNTOWN  CLEAR     60  50  69 CALM      29.94F
L.A. AIRPORT   CLEAR     61  50  67 CALM      29.95S
LONG BEACH     CLEAR     60  46  59 NE3       29.95R

CITY           SKY/WX    TMP DP  RH WIND       PRES   REMARKS
AVALON           N/A     54 N/A N/A S3          N/A
FULLERTON      CLEAR     59  48  67 CALM      29.95R
HAWTHORNE      CLEAR     59  49  69 CALM      29.95S
*LOS ALAMITOS  FAIR      55  52  89 E2        29.95R
*REDONDO BEACH   N/A     55  47  75 CALM      29.93S
SANTA ANA      CLEAR     61  52  72 SW3       29.95R
STA MONICA APT CLEAR     60  50  69 CALM      29.95S
*UCLA            N/A     57  39  51 N1        29.92F

$$

CAZ547-548-048-240900-
LA COUNTY VALLEYS AND INLAND EMPIRE


CITY           SKY/WX    TMP DP  RH WIND       PRES   REMARKS
BURBANK        CLEAR     59  44  57 CALM      29.94F
VAN NUYS       CLEAR     62  26  25 NE6       29.94F

CITY           SKY/WX    TMP DP  RH WIND       PRES   REMARKS
CORONA AIRPORT SUNNY     53  42  66 CALM        N/A
*CHATSWORTH      N/A     59  41  51 CALM      29.92S
CHINO          CLEAR     53  43  68 W5        29.96S
MARCH AFB      CLEAR     51  38  61 CALM      29.96S
*NORTHRIDGE      N/A     59  30  33 W1          N/A
ONTARIO        PTCLDY    57  39  51 NW3       29.95S
*PASADENA        N/A     59  45  58 CALM        N/A
RIVERSIDE      CLEAR     59  43  55 CALM      29.95S
SAN BERNARDINO NOT AVBL
*SAN GABRIEL     N/A     58  46  64 CALM      29.93S
*WHITEMAN AP   NOT AVBL
*WOODLAND HILL   N/A     52  34  50 S2          N/A

$$

CAZ054-055-240900-
LA AND SAN BERNARDINO COUNTY MOUNTAINS


CITY           SKY/WX    TMP DP  RH WIND       PRES   REMARKS
*BIG BEAR AIRP MOSUNNY   30  14  51 CALM      30.13S
MT WILSON NWS    N/A     46  28  49 MISG        N/A
SANDBERG       CLEAR     47  25  42 N14G21    30.06S
*WARM SPRINGS    N/A     51  15  24 W12         N/A

$$

CAZ028-029-059-060-099-240900-
ANTELOPE VALLEY AND SURROUNDING AREAS


CITY           SKY/WX    TMP DP  RH WIND       PRES   REMARKS
LANCASTER      CLEAR     51  26  37 W7        30.02R
PALMDALE       CLEAR     51  23  33 S3        30.02S

CITY           SKY/WX    TMP DP  RH WIND       PRES   REMARKS
29 PALMS       CLEAR     62  27  26 NW8       30.03R
BARSTOW/DAGGET CLEAR     58  27  30 W10       29.98R
BISHOP         PTCLDY    50  16  25 CALM      30.01R
CHINA LAKE       N/A     55  30  38 SW7       29.96R
EDWARDS AFB    CLEAR     50  27  41 S6        29.98S
MOJAVE         FAIR      54  28  37 W16       30.00S
NEEDLES        CLEAR     69  11  10 W9        29.89S
VICTORVILLE      N/A     48  21  34 CALM      30.02S

$$

CAZ039-040-240900-
VENTURA AND SANTA BARBARA COUNTY COAST


CITY           SKY/WX    TMP DP  RH WIND       PRES   REMARKS
CAMARILLO      CLEAR     55  47  74 CALM      29.94S
NWS OXNARD       N/A     53  47  78 CALM      29.93F
OXNARD AIRPORT CLEAR     56  49  77 CALM      29.94S
*POINT MUGU    CLEAR     52  47  83 CALM      29.93S
SBA APT/GOLETA CLEAR     59  47  64 CALM      29.93R
*SANTA BARBARA   N/A     61  49  65 CALM      30.01S
*VENTURA         N/A     55  43  63 CALM      29.99S

$$

CAZ044-045-240900-
VENTURA COUNTY VALLEYS


CITY           SKY/WX    TMP DP  RH WIND       PRES   REMARKS
*SIMI VALLEY     N/A     56  30  37 CALM      29.90S
*OJAI            N/A     48  36  62 CALM      29.90S
*FILLMORE        N/A     50  39  65 CALM      29.86S

$$

CAZ053-240900-
VENTURA COUNTY MOUNTAINS


CITY           SKY/WX    TMP DP  RH WIND       PRES   REMARKS
*LOCKWOOD VLY    N/A     28  21  74 MISG        N/A
*ROSE VALLEY     N/A    N/A N/A N/A MISG        N/A

$$

CAZ034-035-036-240900-
CENTRAL COAST AND SANTA YNEZ VALLEY


CITY           SKY/WX    TMP DP  RH WIND       PRES   REMARKS
SAN LUIS OBISP CLEAR     58  41  53 W5        30.04R
SANTA MARIA    CLEAR     50  44  80 NW5       30.02S

CITY           SKY/WX    TMP DP  RH WIND       PRES   REMARKS
*CAL POLY SLO    N/A     59  43  55 N7          N/A
*CAMBRIA         N/A     45  43  92 CALM      29.94F
*LOMPOC        CLEAR     46  43  87 NE6       30.02R
*PISMO BEACH     N/A     61  43  50 NW3       30.03S
*SANTA YNEZ    FAIR      46  37  71 CALM      30.00R

$$

CAZ037-038-051-240900-
SAN LUIS OBISPO COUNTY INTERIOR AND CUYAMA VALLEY


CITY           SKY/WX    TMP DP  RH WIND       PRES   REMARKS
*CUYAMA          N/A     46  25  44 CALM      29.96R
PASO ROBLES    CLEAR     53  40  61 NW15      30.07R

$$

CAZ032-033-061-240900-
SOUTHERN DESERTS


CITY           SKY/WX    TMP DP  RH WIND       PRES   REMARKS
BLYTHE         CLEAR     68  12  11 N5        29.87R
IMPERIAL       CLEAR     61  42  49 W7        29.84S
PALM SPRINGS   CLEAR     70  43  37 NW10      29.89S
THERMAL        PTCLDY    70  44  39 NW5       29.84S

$$

ELSEWHERE ACROSS THE WESTERN UNITED STATES AND MEXICO


CITY           SKY/WX    TMP DP  RH WIND       PRES   REMARKS
DENVER, CO     CLOUDY    40  36  86 SW6       29.95R
GRAND CANYON,  PTCLDY    25   9  50 E6        30.11R WCI  18
HONOLULU, HI   PTCLDY    73  66  78 NE9G16    30.11R
KAHULUI, MAUI  CLEAR     73  66  78 NE18G28   30.11R
LAKE TAHOE, CA PTCLDY    34  28  79 CALM      30.12R
LAS VEGAS, NV  MOCLDY    64  14  14 S8        29.91R
MAMMOTH LAKES, FAIR      34  23  64 NW3       30.12S
MEXICO CITY, M CLEAR     59  41  51 W3        30.28S
PHOENIX, AZ    CLEAR     74  13   9 NW5       29.86S
PORTLAND, OR   CLOUDY    54  49  83 S10       29.75F
RENO, NV       PTCLDY    52  28  39 W10       30.06R
SALT LAKE CITY PTCLDY    40  23  50 SE8       30.06F WCI  34
SAN DIEGO, CA  PTCLDY    63  51  65 CALM      29.97S
SAN FRANCISCO, PTCLDY    56  51  84 W8        30.12R
SAN JOSE, CA   CLEAR     54  48  80 CALM      30.11F
SEATTLE, WA    LGT RAIN  50  47  89 SE16      29.63F
TIJUANA, MEX   CLEAR     57  50  77 CALM      29.98S

$$

STATION/POSITION TIME  TEMP    WIND        PRES    VSBY  WAVE
                       AIR SEA DIR/SP/G                  HT/PER
                 (UTC) (F)     (DEG/KT/KT) (MB)    (MI)  (FT/S)
POINT ARGUELLO B NOT AVBL
WEST SANTA BARBA 0800   54 54  320/ 23/ 29 1014.1S        10/12
POINT CONCEPTION NOT AVBL
EAST SANTA BARBA NOT AVBL
SANTA MONICA BAY 0800   61 61  340/  6/  6 1013.6R         5/ 7



USA.gov is the U.S. government's official web portal to all federal, state and local government web resources and services.